Fitchburg, MA

10:52 PM EST on December 14, 2017 (GMT -0500)
Fitchburg Municipal

Weather History for KFIT - March, 2013

Change the Weather History Date:

Saturday, March 9, 2013

  Actual Average (KORH) Record (KORH)
Temperature  
Mean Temperature 37 °F -  
Max Temperature 55 °F 38 °F 74 °F (2000)
Min Temperature 19 °F 21 °F -6 °F (1943)
Degree Days  
Heating Degree Days 28    
Moisture  
Dew Point 19 °F    
Average Humidity 54    
Maximum Humidity 92    
Minimum Humidity 17    
Precipitation  
Precipitation 0.00 in - - ()
Sea Level Pressure  
Sea Level Pressure 30.26 in    
Wind  
Wind Speed 5 mph (NNE)    
Max Wind Speed 9 mph    
Max Gust Speed -    
Visibility 10 miles    
Events      
Averages and records for this station are not official NWS values.
T = Trace of Precipitation, MM = Missing Value Source: NWS Daily Summary

Daily Weather History Graph

Daily Weather History Graph

Search for Another Location

Airport or City:

Trip Planner

Search our weather history database for the weather conditions in past years. The results will help you decide how hot, cold, wet, or windy it might be!

Date:

Astronomy

Mar. 09, 2013 Rise Set
Actual Time 6:08 AM EST 5:46 PM EST
Civil Twilight 5:40 AM EST 6:14 PM EST
Nautical Twilight 5:08 AM EST 6:47 PM EST
Astronomical Twilight 4:35 AM EST 7:20 PM EST
Moon 4:33 AM EST (3/9) 3:43 PM EST (3/9)
Length of Visible Light 12h 33m
Length of Day
11h 37m
Waning Crescent, 5% of the Moon is Illuminated
Mar 9
Waning Crescent
Mar 11
New
Mar 19
First Quarter
Mar 27
Full
Apr 3
Last Quarter

Hourly Weather History & Observations

Time (EST) Temp. Windchill Dew Point Humidity Pressure Visibility Wind Dir Wind Speed Gust Speed Precip Events Conditions
12:52 AM 37.0 °F 30.4 °F 18.0 °F 46% 30.19 in 10.0 mi North 9.2 mph - N/A   Clear
1:52 AM 34.0 °F 28.8 °F 18.0 °F 52% 30.19 in 10.0 mi WNW 5.8 mph - N/A   Clear
2:52 AM 33.1 °F 28.7 °F 16.0 °F 50% 30.17 in 10.0 mi NNW 4.6 mph - N/A   Clear
3:52 AM 30.9 °F 27.5 °F 17.1 °F 57% 30.17 in 10.0 mi NW 3.5 mph - N/A   Clear
4:52 AM 26.1 °F - 18.0 °F 71% 30.20 in 10.0 mi Calm Calm - N/A   Clear
5:52 AM 19.9 °F - 16.0 °F 85% 30.22 in 10.0 mi Calm Calm - N/A   Clear
6:52 AM 21.9 °F - 18.0 °F 85% 30.25 in 10.0 mi Calm Calm - N/A   Clear
7:52 AM 26.1 °F - 19.9 °F 78% 30.25 in 10.0 mi Calm Calm - N/A   Clear
8:52 AM 43.0 °F 38.8 °F 14.0 °F 31% 30.25 in 10.0 mi NNE 6.9 mph - N/A   Clear
9:52 AM 44.1 °F 39.5 °F 15.1 °F 31% 30.25 in 10.0 mi NNE 8.1 mph - N/A   Clear
10:52 AM 46.0 °F 42.5 °F 14.0 °F 28% 30.25 in 10.0 mi NNE 6.9 mph - N/A   Clear
11:52 AM 48.0 °F - 14.0 °F 26% 30.26 in 10.0 mi Calm Calm - N/A   Clear
12:52 PM 52.0 °F - 10.9 °F 19% 30.24 in 10.0 mi NE 3.5 mph - N/A   Clear
1:52 PM 52.0 °F - 10.9 °F 19% 30.22 in 10.0 mi NE 6.9 mph - N/A   Clear
2:52 PM 55.0 °F - 10.0 °F 17% 30.22 in 10.0 mi ENE 8.1 mph - N/A   Clear
3:52 PM 54.0 °F - 12.0 °F 19% 30.23 in 10.0 mi ESE 4.6 mph - N/A   Clear
4:52 PM 50.0 °F - 18.0 °F 28% 30.26 in 10.0 mi ESE 6.9 mph - N/A   Clear
5:52 PM 46.0 °F 44.8 °F 25.0 °F 44% 30.30 in 10.0 mi East 3.5 mph - N/A   Clear
6:52 PM 41.0 °F 38.0 °F 28.9 °F 62% 30.32 in 10.0 mi ESE 4.6 mph - N/A   Clear
7:52 PM 36.0 °F - 28.9 °F 76% 30.34 in 10.0 mi Calm Calm - N/A   Clear
8:52 PM 30.9 °F - 27.0 °F 85% 30.35 in 10.0 mi Calm Calm - N/A   Clear
9:52 PM 27.0 °F - 25.0 °F 92% 30.35 in 10.0 mi Calm Calm - N/A   Clear
10:52 PM 28.0 °F - 26.1 °F 92% 30.36 in 8.0 mi Calm Calm - N/A   Clear
11:52 PM 26.1 °F 20.5 °F 24.1 °F 92% 30.37 in 9.0 mi NW 4.6 mph - N/A   Clear